Location: Baidpalle
(17.1973°N, 80.8880°E)
Time: 11:31:03
(UTC+00:00)

Daily predictions for brighter satellites

Satellite Brightness Start Highest point End
(mag) Time Altitude Azimuth Time Altitude Azimuth Time Altitude Azimuth
ATLAS 5 CENTAUR R/B 3.8 13:16:44 10° NW 13:22:35 43° WSW 13:29:20 10° S
CZ-4B R/B 3.6 13:22:44 10° SSE 13:27:19 51° ENE 13:32:00 10° N
Cosmos 494 Rocket 4.1 13:24:21 10° S 13:29:17 53° ESE 13:34:14 10° NNE
Cosmos 1076 Rocket 3.7 13:25:12 10° N 13:29:28 75° W 13:33:44 10° S
NOAA 6 4.3 13:25:23 10° S 13:30:28 73° WSW 13:35:34 10° NNW
Cosmos 921 Rocket 3.0 13:29:38 10° S 13:34:03 81° ESE 13:38:32 10° NNE
ADEOS Rocket 3.4 13:29:36 10° S 13:35:41 74° WSW 13:42:29 10° NNW
Cosmos 192 4.3 13:33:40 10° N 13:38:35 76° ENE 13:43:30 10° SSE
Cosmos 1603 4.1 13:36:38 10° S 13:41:48 38° ESE 13:47:00 10° NE
Resurs 01 Rocket 3.7 13:44:05 10° E 13:45:16 11° ENE 13:46:26 10° ENE
Yuri Rocket 3.0 13:41:30 10° WNW 13:45:48 72° NNE 13:49:24 14° ESE
CZ-4 R/B 2.5 13:44:14 12° SE 13:46:57 23° ENE 13:49:59 10° NNE
Resurs 1-3 4.1 13:45:45 10° SE 13:49:46 39° ENE 13:53:47 10° N
Landsat 7 3.9 13:50:03 10° S 13:54:44 77° WSW 13:59:25 10° NNW
Cosmos 2369 Rocket 3.9 13:53:21 10° NE 13:56:21 15° ENE 13:58:20 12° E
Cosmos 1048 Rocket 3.9 13:53:24 10° S 13:58:34 77° ESE 14:03:41 10° NNE
Meteor PRIRODA 3.6 13:55:37 10° S 13:59:01 71° W 14:02:23 10° NNW
GPS 2-14 Rocket1 2.4 14:01:18 10° W 14:04:17 48° SSW 14:05:34 28° SE
Cosmos 1378 4.5 14:01:43 10° SSW 14:04:43 35° W 14:07:44 10° NNW
Hubble Space Telescope 3.1 14:04:36 10° WNW 14:07:31 19° N 14:10:26 10° NE
SJ-6B 2.6 14:04:35 14° SSE 14:07:39 66° ENE 14:11:19 10° N
Cosmos 1464 Rocket 3.9 14:01:50 10° N 14:07:59 70° E 14:14:05 10° S
Cosmos 1943 Rocket 3.0 14:02:36 10° NNW 14:08:01 51° WSW 14:13:22 10° S
Skynet4D Del rocket 3.9 14:04:47 10° WNW 14:10:35 70° SSW 14:14:53 22° SE
Cosmos 1943 4.0 14:05:48 10° SSW 14:11:20 56° WNW 14:16:53 10° N
Cosmos 44 3.5 14:09:39 10° N 14:13:56 43° ENE 14:15:41 28° ESE
Meteor 2-6 Rocket 4.2 14:09:22 10° S 14:14:55 59° E 14:20:19 10° NNE
NOSS 3-3 (C) 4.3 14:15:28 25° ESE 14:15:34 25° ESE 14:19:47 10° NE
ATLAS 3B R/B 3.0 14:09:05 10° NNW 14:16:48 63° ENE 14:21:48 22° SE
SPOT 1/Viking Rocket 3.5 14:13:44 16° SSE 14:17:53 69° ENE 14:23:00 10° N
USA 290 3.5 14:25:13 10° NNW 14:28:12 38° WSW 14:29:53 21° SSW
Meteor 1-5 Rocket 4.1 14:24:04 10° N 14:29:43 81° E 14:33:22 22° S
Lacrosse 5 2.0 14:25:05 10° NW 14:30:09 70° WSW 14:32:43 29° SSE
Cosmos 1371 Rocket 4.0 14:25:30 10° N 14:30:48 65° ENE 14:33:05 34° SE
Cosmos 1420 Rocket 3.9 14:25:48 10° NNW 14:31:05 82° ENE 14:33:54 28° SSE
VEP-3 3.4 14:20:04 10° WNW 14:33:21 58° SSW 14:36:17 30° SE
Haruka 4.3 14:04:03 10° WNW 14:33:22 86° SSW 14:36:41 32° ESE
Okean-O 4.5 14:39:36 17° NE 14:39:36 17° NE 14:41:28 10° NNE
OAO 2 Rocket 3.3 14:34:27 10° WNW 14:39:46 88° NNE 14:41:18 48° ESE
Cosmos 1634 Rocket 4.4 14:34:35 10° NNE 14:40:16 38° E 14:41:06 36° ESE
GPS 2-17 Rocket1 2.9 14:40:51 10° W 14:45:25 78° SSW 14:46:00 66° SE
ARIANE DEB (SYLDA) 4.4 14:42:08 10° SW 14:46:27 29° SSE 14:47:24 28° SSE
CZ-4B R/B 3.1 14:47:14 35° S 14:49:37 83° WSW 14:54:55 10° NNW
USA 186 3.2 14:56:31 36° W 14:56:31 36° W 14:59:13 10° NNW
Cosmos 1842 Rocket 3.9 14:54:53 35° SSW 14:56:35 64° W 15:00:57 10° N
MOS 1-B Rocket 4.5 14:54:45 38° SE 14:58:00 68° ENE 15:04:53 10° N
Cosmos 2034 Rocket 4.4 14:52:27 10° NNW 14:58:39 61° W 15:03:03 20° SSW
Delta 202 4.0 14:54:25 10° W 15:00:14 90° NNW 15:03:06 41° E
Cosmos 1743 3.8 14:58:05 10° N 15:00:20 36° N 15:00:20 36° N
CSL-04 Rocket 3.6 15:02:37 56° S 15:03:44 80° WSW 15:09:00 10° NNW
Meteor 1-27 Rocket 4.0 15:05:13 47° ENE 15:05:13 47° ENE 15:09:33 10° NNE
Cosmos 1818 3.7 15:01:39 10° SSW 15:07:00 72° WNW 15:12:26 10° NNE
Cosmos 614 Rocket 4.4 15:09:26 49° NE 15:09:26 49° NE 15:13:16 10° NNE
Cosmos 1656 Rocket 4.1 15:11:42 10° NNW 15:17:04 54° WSW 15:18:00 48° SW
Cosmos 2297 4.2 15:12:11 10° NNW 15:17:40 53° WSW 15:18:42 47° SW
Resurs 01 Rocket 2.8 15:21:08 36° WSW 15:21:18 36° W 15:25:22 10° NNW
CZ-4 R/B 4.1 15:20:13 10° WSW 15:21:25 11° W 15:22:36 10° W
Okean O Rocket 2.7 15:24:39 42° W 15:24:39 42° W 15:28:24 10° NNW
Terra 4.4 15:28:08 11° NNE 15:28:08 11° NNE 15:28:19 10° NNE
SeaSat 1 3.1 15:33:05 51° NW 15:33:05 51° NW 15:36:49 10° NNW
USA 229 DEB 3.9 15:27:26 10° NNW 15:35:27 88° ENE 15:36:15 76° SSE
USA 229 3.9 15:27:32 10° NNW 15:35:34 88° ENE 15:36:21 76° SSE
Cosmos 2369 Rocket 3.0 15:35:04 10° NW 15:40:08 43° W 15:40:08 43° W
Hubble Space Telescope 3.7 15:46:21 10° NW 15:47:18 13° NNW 15:47:18 13° NNW
FALCON 9 R/B 4.4 16:13:50 10° NW 16:20:52 51° NE 16:25:25 41° ENE
USA 59 Rocket 3.3 16:46:38 10° N 16:47:09 13° N 16:47:09 13° N
ATLAS 2AS CENTAUR R/B 4.4 20:37:53 10° N 20:43:18 26° ENE 20:48:37 10° ESE
Cosmos 2219 Rocket 4.2 20:42:12 10° N 20:44:29 23° NNE 20:44:29 23° NNE
Cosmos 2227 Rocket 3.2 21:14:21 43° ENE 21:14:21 43° ENE 21:18:23 10° NNE
Atlas Centaur 2 4.1 21:17:51 17° N 21:17:51 17° N 21:20:00 10° NNE
Envisat 4.2 21:17:39 10° NNE 21:21:20 39° ENE 21:21:20 39° ENE
COSMOS 2428 4.0 21:18:31 10° N 21:23:43 37° ENE 21:26:54 21° SE
ALOS 4.4 21:21:30 10° N 21:22:54 20° N 21:22:54 20° N
USA 234 4.4 21:20:33 10° ESE 21:26:36 41° NE 21:32:40 10° NNW
Cosmos 2297 Rocket 3.6 21:37:30 27° NNW 21:37:30 27° NNW 21:40:30 10° N
CZ-2C R/B 3.4 21:33:32 10° NNE 21:37:15 39° E 21:37:15 39° E
IRS-1D 4.4 21:41:19 10° NNE 21:46:18 44° E 21:47:15 40° SE
Sakura Rocket 4.2 21:46:53 66° SSW 21:47:51 73° SSE 21:54:09 10° ENE
Nadezhda 3 Rocket 4.2 21:43:00 10° NNW 21:48:12 54° NW 21:48:12 54° NW
CZ-4 R/B 4.3 21:44:34 10° N 21:48:23 57° N 21:48:23 57° N
Cosmos 2366 rocket 3.9 21:52:02 67° S 21:52:59 88° W 21:59:21 10° N
CZ-4C R/B 4.0 21:58:20 13° NNW 21:58:20 13° NNW 21:59:12 10° NNW
SL-24 DEB 4.3 21:56:15 10° N 22:00:16 70° N 22:00:16 70° N
Cosmos 2341 Rocket 4.2 22:06:05 50° W 22:06:07 50° W 22:12:08 10° N
PAYLOAD A 3.9 22:02:59 10° NNE 22:08:03 87° ESE 22:09:05 59° S
Cosmos 1455 Rocket 3.1 22:08:53 10° N 22:12:50 66° NW 22:12:50 66° NW
ASTRO E2 3.4 22:16:56 39° N 22:16:56 39° N 22:19:42 10° NE
Cosmos 2084 Rocket 3.4 22:17:31 70° WNW 22:17:35 70° WNW 22:21:54 10° NNE
GPS 2-12 Rocket1 3.0 22:17:44 63° S 22:17:50 64° SSE 22:22:18 10° E
BlueWalker 3 3.9 22:19:59 19° NNW 22:19:59 19° NNW 22:21:56 10° N
Thor Agena Rocket 3.5 22:19:02 10° N 22:24:16 69° WNW 22:26:02 41° SW
SL-16 R/B 3.0 22:24:16 37° WSW 22:24:17 37° W 22:29:59 10° NW
Cosmos 372 Rocket 3.9 22:24:13 35° S 22:26:30 85° E 22:31:43 10° NNE
NOSS 3-2 (A) 2.7 22:25:54 48° SW 22:27:17 81° WNW 22:32:26 10° NNE
ASTEX 1 3.5 22:27:36 47° SW 22:28:21 51° W 22:33:07 10° NNW
ATLAS 2A CENTAUR R/B 3.6 22:28:40 12° NNW 22:29:07 12° N 22:30:06 10° NNE
CENTAUR R/B 2.6 22:31:37 35° W 22:32:40 39° WNW 22:37:57 10° N
ATLAS 2AS CENTAUR R/B 3.1 22:28:09 10° NW 22:34:00 34° WSW 22:39:49 10° S
Cosmos 2263 Rocket 2.1 22:33:55 32° SSW 22:36:31 69° WNW 22:42:06 10° N
NOSS 0 Rocket 3.9 22:35:48 10° NNW 22:41:55 63° WSW 22:48:04 10° S
Cosmos 1437 Rocket 3.4 22:39:41 13° S 22:43:01 55° E 22:46:52 10° NNE
Cosmos 2082 3.7 22:40:31 28° SW 22:43:28 62° WNW 22:49:03 10° N
Cosmos 292 Rocket 4.4 22:43:24 31° W 22:44:21 34° WNW 22:48:39 10° N
H-2A R/B 2.2 22:41:42 10° NNE 22:47:07 83° ESE 22:52:23 10° S
GPS 2-15 Rocket1 4.1 22:46:09 24° SSW 22:47:51 31° SSE 22:51:55 10° E
DELTA 2 R/B (1) 4.0 22:47:54 20° W 22:51:05 37° SW 22:56:09 10° SSE
OAO 3 Rocket 4.2 22:51:07 26° SW 22:51:17 26° SW 22:55:18 10° SSE
Cosmos 858 Rocket 4.4 22:50:28 17° SSW 22:54:35 75° WNW 22:59:50 10° N
Cosmos 2219 4.3 22:53:47 22° WSW 22:55:49 27° WNW 23:00:31 10° NNW
GOES 2 Rocket 4.2 22:52:48 21° W 22:56:48 67° NNW 23:04:31 10° ENE
Cosmos 2227 Rocket 4.1 22:56:10 11° WNW 22:57:01 12° WNW 22:58:58 10° NW
Cosmos 1934 Rocket 4.3 22:52:22 10° S 22:58:26 67° E 23:04:37 10° N
Cosmos 2239 Rocket 4.5 22:55:01 10° SSW 23:01:10 63° W 23:07:18 10° N
Cosmos 2237 Rocket 2.1 22:59:34 10° NNW 23:05:08 63° WSW 23:10:40 10° S
Atlas Centaur 2 4.0 23:04:03 10° NNW 23:06:22 14° N 23:08:30 10° NE
ARIANE 5 R/B 3.5 23:04:56 12° SSW 23:06:48 18° SSE 23:11:38 10° ESE
COSMOS 2428 4.0 23:03:59 10° WNW 23:07:34 17° WSW 23:08:35 16° WSW
CBERS-1 4.0 23:02:34 10° N 23:07:37 66° WNW 23:12:40 10° SSW
USA 234 3.8 23:03:39 10° S 23:09:26 34° SW 23:15:14 10° WNW
Cosmos 1980 4.0 23:09:44 10° NNW 23:15:04 45° WSW 23:20:26 10° S
CZ-3A R/B 3.8 23:10:38 10° W 23:15:59 19° SW 23:18:40 10° S
Cosmos 1544 Rocket 4.5 23:17:58 10° NNW 23:21:47 29° W 23:25:35 10° SSW
USA 238 DEB 4.1 23:19:30 10° S 23:25:19 55° ESE 23:31:20 10° NE
USA 238 4.1 23:19:34 10° S 23:25:23 54° ESE 23:31:23 10° NE
SL-08 RB Rocket 4.2 23:25:00 10° NNE 23:29:21 60° E 23:33:43 10° S
Geosat 4.0 23:26:47 10° SSE 23:31:44 66° WSW 23:36:42 10° NNW
SWIFT 4.5 23:34:57 10° S 23:37:01 14° SSE 23:39:05 10° SE
ARGOS 3.2 23:34:21 10° N 23:39:41 70° WNW 23:45:03 10° SSW
